Rosharon, TX

11:57 PM CST on December 08, 2016 (GMT -0600)
Houston-Southwest

Weather History for KAXH - June, 2013

Change the Weather History Date:

Saturday, June 29, 2013

  Actual Average (KSGR) Record (KSGR)
Temperature  
Mean Temperature 89 °F -  
Max Temperature 103 °F 92 °F 106 °F (2013)
Min Temperature 75 °F 73 °F 63 °F (1985)
Cooling Degree Days 24    
Growing Degree Days 39 (Base 50)    
Moisture  
Dew Point 70 °F    
Average Humidity 63    
Maximum Humidity 97    
Minimum Humidity 24    
Precipitation  
Precipitation 0.00 in - - ()
Sea Level Pressure  
Sea Level Pressure 29.80 in    
Wind  
Wind Speed 4 mph (WSW)    
Max Wind Speed 13 mph    
Max Gust Speed 18 mph    
Visibility 10 miles    
Events      
Averages and records for this station are not official NWS values.
T = Trace of Precipitation, MM = Missing Value Source: NWS Daily Summary

Daily Weather History Graph

Daily Weather History Graph

Search for Another Location

Airport or City:

Trip Planner

Search our weather history database for the weather conditions in past years. The results will help you decide how hot, cold, wet, or windy it might be!

Date:

Astronomy

Jun. 29, 2013 Rise Set
Actual Time 6:24 AM CDT 8:25 PM CDT
Civil Twilight 5:57 AM CDT 8:53 PM CDT
Nautical Twilight 5:24 AM CDT 9:26 PM CDT
Astronomical Twilight 4:49 AM CDT 10:01 PM CDT
Moon 12:26 AM CDT (6/29) 1:03 PM CDT (6/29)
Length of Visible Light 14h 55m
Length of Day
14h 00m
Waning Gibbous, 55% of the Moon is Illuminated
Jun 29
Waning Gibbous
Jun 29
Last Quarter
Jul 8
New
Jul 15
First Quarter
Jul 22
Full

Hourly Weather History & Observations

Time (CDT) Temp. Heat Index Dew Point Humidity Pressure Visibility Wind Dir Wind Speed Gust Speed Precip Events Conditions
12:15 AM 77.5 °F - 72.1 °F 83% 29.85 in 10.0 mi Calm Calm - N/A   Clear
12:35 AM 77.2 °F - 72.3 °F 85% 29.85 in 10.0 mi Calm Calm - N/A   Clear
12:55 AM 77.0 °F - 72.5 °F 86% 29.85 in 10.0 mi Calm Calm - N/A   Clear
1:15 AM 77.2 °F - 72.9 °F 86% 29.84 in 10.0 mi SSW 3.5 mph - N/A   Clear
1:35 AM 77.2 °F - 72.9 °F 86% 29.83 in 10.0 mi Calm Calm - N/A   Clear
1:55 AM 77.0 °F - 73.6 °F 89% 29.84 in 10.0 mi Calm Calm - N/A   Clear
2:15 AM 77.0 °F - 73.9 °F 90% 29.84 in 10.0 mi Calm Calm - N/A   Clear
2:35 AM 77.0 °F - 74.3 °F 91% 29.84 in 10.0 mi Calm Calm - N/A   Clear
2:55 AM 76.6 °F - 74.5 °F 93% 29.84 in 10.0 mi Calm Calm - N/A   Clear
3:15 AM 76.3 °F - 74.5 °F 94% 29.84 in 10.0 mi Calm Calm - N/A   Clear
3:35 AM 75.7 °F - 74.3 °F 95% 29.84 in 10.0 mi Calm Calm - N/A   Clear
3:55 AM 75.6 °F - 74.3 °F 96% 29.84 in 7.0 mi Calm Calm - N/A   Clear
4:15 AM 75.6 °F - 74.5 °F 96% 29.84 in 7.0 mi Calm Calm - N/A   Clear
4:35 AM 75.6 °F - 74.7 °F 97% 29.84 in 7.0 mi SW 3.5 mph - N/A   Clear
4:55 AM 75.7 °F - 74.7 °F 96% 29.84 in 7.0 mi SW 3.5 mph - N/A   Clear
5:15 AM 76.1 °F - 74.8 °F 96% 29.84 in 7.0 mi SW 3.5 mph - N/A   Clear
5:35 AM 75.9 °F - 74.7 °F 96% 29.85 in 7.0 mi Calm Calm - N/A   Clear
5:55 AM 75.6 °F - 74.7 °F 97% 29.85 in 7.0 mi SW 3.5 mph - N/A   Clear
6:15 AM 75.7 °F - 74.8 °F 97% 29.85 in 7.0 mi WSW 4.6 mph - N/A   Clear
6:35 AM 76.1 °F - 74.8 °F 96% 29.86 in 7.0 mi Calm Calm - N/A   Clear
6:55 AM 76.1 °F - 75.0 °F 96% 29.86 in 7.0 mi SW 3.5 mph - N/A   Clear
7:15 AM 76.8 °F - 75.2 °F 95% 29.86 in 7.0 mi WSW 4.6 mph - N/A   Clear
7:35 AM 77.9 °F - 75.4 °F 92% 29.86 in 10.0 mi WSW 6.9 mph - N/A   Clear
7:55 AM 78.8 °F - 75.6 °F 90% 29.86 in 10.0 mi SW 6.9 mph - N/A   Clear
8:15 AM 79.9 °F - 75.9 °F 88% 29.87 in 10.0 mi WSW 6.9 mph - N/A   Clear
8:35 AM 81.3 °F 86.8 °F 73.9 °F 78% 29.87 in 10.0 mi WSW 8.1 mph - N/A   Clear
8:55 AM 82.8 °F 88.2 °F 72.7 °F 71% 29.87 in 10.0 mi WSW 10.4 mph 17.3 mph N/A   Clear
9:15 AM 84.6 °F 90.7 °F 72.7 °F 67% 29.86 in 10.0 mi WSW 4.6 mph - N/A   Clear
9:35 AM 86.2 °F 91.8 °F 71.4 °F 61% 29.86 in 10.0 mi West 8.1 mph - N/A   Clear
9:55 AM 87.1 °F 92.8 °F 71.2 °F 59% 29.86 in 10.0 mi West 8.1 mph - N/A   Clear
10:15 AM 88.5 °F 93.5 °F 70.0 °F 54% 29.86 in 10.0 mi West 9.2 mph - N/A   Clear
10:35 AM 89.4 °F 94.0 °F 69.3 °F 51% 29.85 in 10.0 mi West 10.4 mph 16.1 mph N/A   Clear
10:55 AM 91.0 °F 95.6 °F 68.9 °F 48% 29.84 in 10.0 mi West 10.4 mph 16.1 mph N/A   Clear
11:15 AM 91.9 °F 96.9 °F 69.3 °F 47% 29.83 in 10.0 mi West 9.2 mph - N/A   Clear
11:35 AM 93.2 °F 97.7 °F 68.5 °F 44% 29.84 in 10.0 mi WSW 8.1 mph - N/A   Clear
11:55 AM 94.3 °F 98.2 °F 67.1 °F 41% 29.83 in 10.0 mi WSW 8.1 mph 16.1 mph N/A   Clear
12:15 PM 95.0 °F 97.9 °F 66.0 °F 38% 29.83 in 10.0 mi West 12.7 mph 18.4 mph N/A   Clear
12:35 PM 95.9 °F 100.1 °F 66.9 °F 39% 29.82 in 10.0 mi WSW 9.2 mph - N/A   Clear
12:55 PM 97.0 °F 101.0 °F 66.9 °F 37% 29.82 in 10.0 mi West 5.8 mph - N/A   Clear
1:15 PM 98.2 °F 102.8 °F 66.7 °F 36% 29.81 in 10.0 mi WNW 9.2 mph 16.1 mph N/A   Clear
1:35 PM 97.7 °F 101.2 °F 66.0 °F 35% 29.80 in 10.0 mi WNW 6.9 mph 16.1 mph N/A   Clear
1:55 PM 99.0 °F 102.9 °F 66.2 °F 34% 29.80 in 10.0 mi North 6.9 mph - N/A   Clear
2:15 PM 99.1 °F 102.6 °F 65.5 °F 33% 29.79 in 10.0 mi West 5.8 mph - N/A   Clear
2:35 PM 100.2 °F 104.6 °F 66.4 °F 33% 29.78 in 10.0 mi West 5.8 mph - N/A   Clear
2:55 PM 101.3 °F 104.6 °F 64.6 °F 30% 29.78 in 10.0 mi NW 8.1 mph - N/A   Clear
3:15 PM 101.8 °F 105.6 °F 64.8 °F 30% 29.77 in 10.0 mi WNW 9.2 mph - N/A   Clear
3:35 PM 101.5 °F 103.6 °F 62.8 °F 28% 29.77 in 10.0 mi NW 3.5 mph - N/A   Clear
3:55 PM 102.2 °F 104.9 °F 63.9 °F 28% 29.75 in 10.0 mi WNW 9.2 mph - N/A   Clear
4:15 PM 101.8 °F 104.9 °F 64.0 °F 29% 29.75 in 10.0 mi Calm Calm - N/A   Clear
4:35 PM 102.6 °F 103.6 °F 61.0 °F 25% 29.74 in 10.0 mi North 5.8 mph - N/A   Clear
4:55 PM 103.3 °F 104.8 °F 61.0 °F 25% 29.73 in 10.0 mi North 9.2 mph 17.3 mph N/A   Clear
5:15 PM 103.3 °F 104.8 °F 61.5 °F 25% 29.72 in 10.0 mi NNW 6.9 mph - N/A   Clear
5:35 PM 103.3 °F 104.8 °F 61.3 °F 25% 29.71 in 10.0 mi Calm Calm - N/A   Clear
5:55 PM 103.1 °F 103.8 °F 60.1 °F 24% 29.71 in 10.0 mi NNW 8.1 mph - N/A   Scattered Clouds
6:15 PM 103.1 °F 103.8 °F 60.3 °F 24% 29.70 in 10.0 mi North 4.6 mph - N/A   Scattered Clouds
6:35 PM 103.3 °F 104.1 °F 59.9 °F 24% 29.71 in 10.0 mi NNE 9.2 mph - N/A   Scattered Clouds
6:55 PM 102.0 °F 103.9 °F 61.7 °F 27% 29.71 in 10.0 mi ENE 3.5 mph - N/A   Scattered Clouds
7:15 PM 98.2 °F 102.8 °F 67.5 °F 36% 29.71 in 10.0 mi East 9.2 mph - N/A   Scattered Clouds
7:35 PM 95.7 °F 103.4 °F 71.2 °F 45% 29.72 in 10.0 mi ESE 9.2 mph - N/A   Scattered Clouds
7:55 PM 92.3 °F 102.8 °F 74.5 °F 56% 29.73 in 10.0 mi SE 8.1 mph - N/A   Clear
8:15 PM 90.0 °F 99.6 °F 74.5 °F 60% 29.73 in 10.0 mi SE 6.9 mph - N/A   Clear
8:35 PM 88.3 °F 97.4 °F 74.5 °F 63% 29.73 in 10.0 mi SE 5.8 mph - N/A   Clear
8:55 PM 86.9 °F 95.4 °F 74.5 °F 66% 29.75 in 10.0 mi SSE 8.1 mph - N/A   Clear
9:15 PM 85.5 °F 93.4 °F 74.3 °F 69% 29.75 in 10.0 mi SSE 3.5 mph - N/A   Clear
9:35 PM 84.6 °F 92.1 °F 74.3 °F 71% 29.75 in 10.0 mi South 3.5 mph - N/A   Clear
9:55 PM 84.0 °F 91.2 °F 74.3 °F 72% 29.76 in 10.0 mi South 4.6 mph - N/A   Clear
10:15 PM 83.3 °F 89.9 °F 73.8 °F 73% 29.77 in 10.0 mi South 4.6 mph - N/A   Clear
10:35 PM 82.6 °F 88.3 °F 73.2 °F 73% 29.78 in 10.0 mi SSW 3.5 mph - N/A   Clear
10:55 PM 82.4 °F 87.7 °F 72.5 °F 72% 29.79 in 10.0 mi Calm Calm - N/A   Clear
11:15 PM 81.7 °F 86.7 °F 72.5 °F 74% 29.80 in 10.0 mi SSW 3.5 mph - N/A   Clear
11:35 PM 81.5 °F 86.3 °F 72.5 °F 74% 29.80 in 10.0 mi Calm Calm - N/A   Clear
11:55 PM 80.6 °F 84.9 °F 72.5 °F 76% 29.80 in 10.0 mi Calm Calm - N/A   Clear